Location: Madrid
(40.4000°N, 3.6830°W)
Time: 20:39:46
(UTC+02:00)

ISS - Pass Details

Date: 17 September 2020
Orbit: 419 x 421 km, 51.6° (Epoch: 30 September)

Event Time Altitude Azimuth Distance (km) Brightness Sun altitude
Rises 20:43:36 0° 198° (SSW) 2,349 0.2 -5.4°
Reaches altitude 10° 20:46:03 10° 180° (S) 1,490 -1.0 -5.8°
Maximum altitude 20:48:32 20° 132° (SE) 1,044 -2.2 -6.3°
Drops below altitude 10° 20:51:03 10° 84° (E) 1,498 -1.6 -6.8°
Enters shadow 20:51:35 - 78° (ENE) 1,669 -1.3 -6.9°
